Location: Bush Observatory
(40.2653°N, 94.3194°W)
Time: 17:35:18
(UTC-05:00)

Daily predictions for brighter satellites

Satellite Brightness Start Highest point End
(mag) Time Altitude Azimuth Time Altitude Azimuth Time Altitude Azimuth
Meteor 2-17 Rocket 4.4 19:26:08 10° S 19:32:10 81° E 19:38:15 10° N
Cosmos 1680 Rocket 4.0 19:27:43 10° SSW 19:33:01 71° WNW 19:38:21 10° NNE
DMSP B5D1-3 4.5 19:29:04 10° NNE 19:34:12 75° ESE 19:39:17 10° S
NOSS 0 Rocket 4.0 19:29:41 10° SSW 19:35:51 88° WNW 19:42:06 10° NNE
Cosmos 1844 4.1 19:30:32 10° NNW 19:36:06 69° WSW 19:41:35 10° SSE
SAR-Lupe-4 3.5 19:33:09 10° SSE 19:36:40 65° ENE 19:40:14 10° N
Helios 1A 4.0 19:34:08 10° SE 19:37:38 27° ENE 19:41:10 10° NNE
ATLAS 3B R/B 3.8 19:33:36 10° SW 19:41:03 54° NW 19:48:17 10° NNE
Cosmos 1812 Rocket 3.8 19:40:05 10° SSW 19:44:24 74° W 19:48:45 10° N
Cosmos 1766 3.9 19:42:34 10° SSE 19:46:10 35° E 19:49:49 10° NNE
SeaSat 1 3.8 19:43:49 10° ENE 19:46:59 17° ESE 19:50:07 10° SE
Cosmos 1844 Rocket 4.2 19:42:51 10° NW 19:48:03 40° WSW 19:53:14 10° S
Cosmos 2237 Rocket 2.5 19:47:55 10° SSW 19:53:36 73° WNW 19:59:18 10° NNE
NOSS 3-2 (A) 3.7 19:48:52 10° S 19:54:35 47° ESE 20:00:44 10° NE
Cosmos 1953 3.5 19:55:01 10° SE 19:58:08 22° E 20:01:15 10° NE
Cosmos 2233 Rocket 4.3 19:52:16 10° SSW 19:58:32 74° W 20:04:53 10° N
USA 238 DEB 4.0 19:51:43 10° SW 19:58:46 74° NW 20:05:50 10° NNE
USA 238 4.0 19:51:48 10° SW 19:58:51 75° NW 20:05:56 10° NNE
CZ-4B DEB 4.2 19:57:57 14° ESE 19:59:48 21° ENE 20:02:21 10° NNE
Cosmos 921 Rocket 4.4 19:57:46 10° NNW 20:01:44 41° W 20:05:39 10° S
NOAA 12 4.2 20:01:40 10° SSE 20:06:55 82° WSW 20:12:13 10° NNW
TIMED 4.4 20:04:27 10° NNW 20:08:50 77° ENE 20:13:11 10° SSE
ATLAS 5 CENTAUR R/B 2.5 20:05:18 10° S 20:09:27 31° ESE 20:13:52 10° NE
SL-16 R/B 2.1 20:05:48 10° SSW 20:11:25 70° ESE 20:17:06 10° NNE
Spot 2 Rocket 3.4 20:10:54 10° SSE 20:15:56 83° ENE 20:20:59 10° NNW
Cosmos 2056 Rocket 3.6 20:11:42 10° NNW 20:17:10 88° WSW 20:22:35 10° SSE
Cosmos 1076 Rocket 3.5 20:12:57 10° N 20:17:13 58° E 20:21:29 10° SSE
Cosmos 1437 3.7 20:15:32 10° NNW 20:18:43 50° W 20:21:53 10° S
Cosmos-2242 3.5 20:15:13 10° SSE 20:19:12 37° E 20:23:15 10° NNE
Cosmos 1805 3.6 20:17:31 10° SSE 20:21:12 40° E 20:24:55 10° NNE
Resurs 01 Rocket 1.7 20:18:04 10° SSE 20:22:32 85° WSW 20:27:01 10° NNW
Timation 1 Rocket 4.3 20:18:39 10° NNW 20:24:36 66° ENE 20:29:45 14° SE
Meteor 1-22 Rocket 4.4 20:19:32 10° SSW 20:24:55 72° W 20:30:13 10° N
H-2A R/B 3.3 20:23:13 24° SE 20:25:02 38° ENE 20:28:41 10° N
Cosmos 1408 Rocket 3.5 20:21:46 10° N 20:26:07 64° E 20:30:24 10° SSE
Resurs 1-3 3.5 20:24:30 10° SSE 20:28:53 87° ENE 20:33:18 10° NNW
Aureole 2 Rocket 3.2 20:25:35 10° SSW 20:29:58 75° WNW 20:34:20 10° NNE
Helios 1B rocket 2.7 20:26:32 10° N 20:30:38 72° WNW 20:34:43 10° SSW
NOSS 3-2 (C) 3.4 20:24:49 10° SSW 20:30:48 68° ESE 20:37:18 10° NE
ALOS 2.2 20:26:26 10° SSE 20:31:01 63° ENE 20:35:39 10° N
Cosmos 2278 Rocket 3.9 20:32:45 10° NW 20:37:46 33° WSW 20:42:46 10° SSW
Cosmos 1758 3.2 20:33:57 10° S 20:37:59 70° E 20:42:04 10° NNE
ASTEX 1 3.5 20:34:17 10° NNE 20:39:05 52° E 20:43:50 10° S
Cosmos 2297 4.0 20:34:52 10° NNW 20:40:30 67° WSW 20:46:05 10° S
Cosmos 1378 4.3 20:38:05 10° NNW 20:41:39 44° W 20:45:12 10° SSW
Meteor 1-29 4.2 20:45:58 10° N 20:49:19 43° WNW 20:52:38 10° SW
Cosmos 1544 3.0 20:49:30 61° E 20:49:31 61° E 20:53:14 10° NNE
FENGYUN 3A 3.6 20:44:55 10° SSE 20:50:17 89° W 20:55:42 10° NNW
Cosmos 1743 Rocket 3.6 20:47:42 10° N 20:52:07 57° E 20:52:51 50° ESE
Nadezhda 4 Rocket 3.9 20:47:41 10° N 20:53:59 69° E 20:58:29 20° SSE
GP-B 4.0 20:51:36 10° NNE 20:54:30 32° NE 20:54:30 32° NE
OAO 3 Rocket 3.7 20:51:30 10° WSW 20:56:02 42° S 20:56:35 41° SSE
ATLAS CENTAUR R/B 3.2 20:53:03 10° NW 20:56:36 28° WSW 20:59:27 13° SSW
Cosmos 1092 Rocket 4.0 20:51:52 10° N 20:57:58 54° E 21:00:03 38° SE
Cosmos 1603 3.6 20:52:42 10° S 20:58:20 64° ESE 21:04:02 10° NNE
Cosmos 2369 Rocket 3.3 20:53:39 10° N 20:58:20 26° NE 20:58:20 26° NE
CZ-4C R/B 4.3 20:58:17 10° W 21:02:51 26° NW 21:07:54 10° NNE
USA 215 4.2 21:01:02 10° NE 21:07:12 46° NNW 21:13:21 10° WSW
Cosmos 1634 Rocket 4.0 21:09:54 47° SE 21:11:00 53° E 21:17:01 10° NNE
Atlas Centaur 2 3.9 21:04:43 10° WSW 21:11:48 31° SSW 21:14:29 25° SSE
Cosmos 1943 Rocket 4.0 21:09:58 10° N 21:12:33 16° NE 21:12:33 16° NE
ERS-1 Rocket 3.3 21:14:26 47° NE 21:14:26 47° NE 21:18:42 10° N
Cosmos 1452 Rocket 3.8 21:08:50 10° NNW 21:14:03 64° WSW 21:16:25 32° S
Meteor 1-21 Rocket 4.4 21:09:23 10° NNW 21:14:56 67° W 21:18:42 21° S
Cosmos 2026 Rocket 4.5 21:10:07 10° N 21:15:07 39° ENE 21:15:07 39° ENE
Cosmos 1674 3.9 21:20:25 10° N 21:22:49 37° NNW 21:22:49 37° NNW
SeaSat 1 2.9 21:19:57 10° NNE 21:24:49 61° WNW 21:29:40 10° SW
H-2A R/B 4.3 21:34:40 17° NNE 21:34:40 17° NNE 21:35:50 10° N
Cosmos 2195 Rocket 4.4 21:30:50 10° N 21:36:58 70° ENE 21:36:58 70° ENE
Cosmos 1420 Rocket 4.1 21:33:48 10° NNW 21:39:05 70° WSW 21:39:08 70° WSW
ATLAS 5 CENTAUR R/B 3.4 21:49:37 10° WSW 21:54:01 34° NW 21:58:05 13° NNE
Cosmos 1627 Rocket 4.5 21:49:47 10° N 21:55:29 76° NNW 21:55:29 76° NNW
Envisat 4.1 22:07:14 40° NW 22:07:14 40° NW 22:10:39 10° NNW
Cosmos 2369 Rocket 3.9 22:37:11 10° NW 22:40:09 29° NW 22:40:09 29° NW
Cosmos 1943 Rocket 4.3 22:52:14 10° NNW 22:54:04 21° NNW 22:54:04 21° NNW
